map of AER home
Great Circle Mapper logo
AER - Airport
Location
City:  Sochi, Krasnodar, Russian Federation (Russia)
ICAO / IATA:URSS / AER

Details
Type:Airport (Aerodrome, Airfield)
Use:Public/Civil
Latitude:4327'00"N (43.449928)
Longitude:3957'24"E (39.956589)
Datum:WGS 1984
Elevation:89 ft (27 m)
Runways:2
Longest:9482 × 164 ft (2890 × 50 m), paved

Time
Time Zone:UTC+3 (DST+4)

Weather
METAR:URSS 240900Z 14004G07MPS 9999 SCT140 OVC300 23/09 Q1014 NOSIG RMK R06/14005MPS QFE759 02000070 06000070
TAF:URSS 240736Z 2409/2509 16005G10MPS 9999 OVC100 520002
BECMG 2415/2416 07006MPS SCT030CB OVC100
TEMPO 2421/2506 VRB07G12MPS 1500 TSRA BKN006 BKN020CB OVC100
BECMG 2506/2508 14005G10MPS
TEMPO 2506/2509 VRB06G11MPS 2200 -TSRA BKN006 BKN020CB OVC100

Related Locations
Nearby:
Farthest:NTAV: 11014 mi / 17726 km
Raivavae, Tubuai Islands, Austral Islands, PF

Find:

   beyond  
but within

Other Information
Maps:
NOTAMs:
Links:
Sources:

  
flag of Russian Federation (Russia)   

Sectional Chart

Flight Planning
at skyvector.com

Satellite Image

Google Maps Satellite View

 

Copyright © 2004-2014 Karl L. Swartz. All rights reserved.
The Great Circle Mapper name and logo are trademarks of the Great Circle Mapper.
All other trademarks mentioned herein belong to their respective owners.
Please see credits for attibutions and further copyright information.

  Follow gcmap on Facebook Follow gcmap on Twitter

hCard Microformat

Geo Microformat